Location: Aufkirchen
(47.9603°N, 11.3653°E)
Time: 08:18:45
(UTC+01:00)

Transit 2A - Pass Details

Date: 28 November 2020
Orbit: 598 x 960 km, 66.7° (Epoch: 16 January)

Event Time Altitude Azimuth Distance (km) Brightness Sun altitude
Rises 22:13:18 0° 309° (NW) 3,509 9.9 -55.6°
Enters shadow 22:13:57 - 312° (NW) 3,335 9.8 -55.7°
Reaches altitude 10° 22:18:15 10° 344° (NNW) 2,473 - -56.3°
Maximum altitude 22:19:43 11° 359° (N) 2,374 - -56.4°
Drops below altitude 10° 22:21:11 10° 15° (NNE) 2,408 - -56.6°
Sets 22:25:45 0° 51° (NE) 3,227 - -57.2°
